TimeMST,TemperatureF,Dew PointF,Humidity,Sea Level PressureIn,VisibilityMPH,Wind Direction,Wind SpeedMPH,Gust SpeedMPH,PrecipitationIn,Events,Conditions,WindDirDegrees,DateUTC
12:15 AM,30.2,24.8,80,29.75,10.0,WSW,8.1,-,N/A,,Overcast,250,2014-02-01 07:15:00
12:35 AM,32.0,24.8,75,29.75,10.0,West,8.1,-,N/A,,Overcast,270,2014-02-01 07:35:00
12:55 AM,32.0,23.0,69,29.74,10.0,WNW,9.2,-,N/A,,Overcast,290,2014-02-01 07:55:00
1:15 AM,30.2,23.0,75,29.73,10.0,NW,6.9,-,N/A,,Overcast,320,2014-02-01 08:15:00
1:35 AM,30.2,23.0,75,29.73,10.0,SW,4.6,-,N/A,,Mostly Cloudy,230,2014-02-01 08:35:00
1:55 AM,30.2,23.0,75,29.73,10.0,SW,8.1,-,N/A,,Mostly Cloudy,220,2014-02-01 08:55:00
2:15 AM,30.2,23.0,75,29.72,10.0,South,6.9,-,N/A,,Overcast,190,2014-02-01 09:15:00
2:35 AM,30.2,23.0,75,29.73,10.0,SSW,4.6,-,N/A,,Overcast,210,2014-02-01 09:35:00
2:55 AM,32.0,23.0,69,29.73,10.0,WSW,12.7,-,N/A,,Overcast,250,2014-02-01 09:55:00
3:15 AM,32.0,23.0,69,29.72,10.0,West,11.5,21.9,N/A,,Overcast,270,2014-02-01 10:15:00
3:35 AM,30.2,23.0,75,29.73,10.0,WSW,10.4,-,N/A,,Overcast,250,2014-02-01 10:35:00
3:55 AM,30.2,23.0,75,29.73,10.0,WSW,12.7,-,N/A,,Overcast,250,2014-02-01 10:55:00
4:15 AM,30.2,21.2,69,29.73,10.0,WSW,12.7,19.6,N/A,,Overcast,250,2014-02-01 11:15:00
4:35 AM,30.2,21.2,69,29.74,10.0,WSW,12.7,17.3,N/A,,Overcast,240,2014-02-01 11:35:00
4:55 AM,30.2,21.2,69,29.74,10.0,WSW,13.8,-,N/A,,Overcast,240,2014-02-01 11:55:00
5:15 AM,30.2,21.2,69,29.74,10.0,WSW,17.3,-,N/A,,Mostly Cloudy,240,2014-02-01 12:15:00
5:35 AM,30.2,21.2,69,29.75,10.0,WSW,15.0,-,N/A,,Partly Cloudy,240,2014-02-01 12:35:00
5:55 AM,30.2,21.2,69,29.76,10.0,WSW,12.7,-,N/A,,Clear,240,2014-02-01 12:55:00
6:15 AM,30.2,21.2,69,29.76,10.0,WSW,10.4,-,N/A,,Clear,250,2014-02-01 13:15:00
6:35 AM,28.4,19.4,69,29.76,10.0,WSW,9.2,-,N/A,,Clear,240,2014-02-01 13:35:00
6:55 AM,28.4,19.4,69,29.76,10.0,WSW,10.4,-,N/A,,Partly Cloudy,240,2014-02-01 13:55:00
7:15 AM,28.4,19.4,69,29.77,10.0,WSW,11.5,-,N/A,,Mostly Cloudy,250,2014-02-01 14:15:00
7:35 AM,30.2,19.4,64,29.77,10.0,WSW,11.5,-,N/A,,Overcast,250,2014-02-01 14:35:00
7:55 AM,30.2,19.4,64,29.78,10.0,West,8.1,-,N/A,,Overcast,260,2014-02-01 14:55:00
8:15 AM,30.2,19.4,64,29.78,10.0,West,9.2,-,N/A,,Overcast,260,2014-02-01 15:15:00
8:35 AM,30.2,19.4,64,29.79,10.0,West,10.4,-,N/A,,Overcast,260,2014-02-01 15:35:00
8:55 AM,30.2,19.4,64,29.80,10.0,WSW,11.5,-,N/A,,Overcast,250,2014-02-01 15:55:00
9:15 AM,32.0,19.4,60,29.81,10.0,WSW,10.4,-,N/A,,Overcast,240,2014-02-01 16:15:00
9:35 AM,32.0,19.4,60,29.81,10.0,SW,9.2,-,N/A,,Overcast,220,2014-02-01 16:35:00
9:55 AM,33.8,17.6,52,29.81,10.0,West,11.5,16.1,N/A,,Mostly Cloudy,260,2014-02-01 16:55:00
10:15 AM,33.8,19.4,56,29.81,10.0,WSW,12.7,20.7,N/A,,Overcast,240,2014-02-01 17:15:00
10:35 AM,33.8,17.6,52,29.81,10.0,WSW,15.0,-,N/A,,Overcast,250,2014-02-01 17:35:00
10:55 AM,37.4,19.4,48,29.80,10.0,West,16.1,-,N/A,,Overcast,260,2014-02-01 17:55:00
11:15 AM,37.4,17.6,45,29.80,10.0,West,18.4,25.3,N/A,,Mostly Cloudy,270,2014-02-01 18:15:00
11:35 AM,37.4,15.8,41,29.80,10.0,West,20.7,-,N/A,,Mostly Cloudy,280,2014-02-01 18:35:00
11:55 AM,37.4,17.6,45,29.80,10.0,West,12.7,19.6,N/A,,Overcast,270,2014-02-01 18:55:00
12:15 PM,35.6,15.8,44,29.80,10.0,West,12.7,19.6,N/A,,Mostly Cloudy,260,2014-02-01 19:15:00
12:35 PM,35.6,15.8,44,29.79,10.0,WNW,13.8,18.4,N/A,,Mostly Cloudy,290,2014-02-01 19:35:00
12:55 PM,35.6,12.2,38,29.78,10.0,WNW,13.8,18.4,N/A,,Mostly Cloudy,290,2014-02-01 19:55:00
1:15 PM,35.6,14.0,41,29.78,10.0,West,13.8,19.6,N/A,,Mostly Cloudy,270,2014-02-01 20:15:00
1:35 PM,35.6,14.0,41,29.77,10.0,WNW,15.0,18.4,N/A,,Scattered Clouds,290,2014-02-01 20:35:00
1:55 PM,37.4,14.0,38,29.77,10.0,West,17.3,20.7,N/A,,Mostly Cloudy,270,2014-02-01 20:55:00
2:15 PM,39.2,12.2,33,29.78,10.0,WNW,19.6,25.3,N/A,,Partly Cloudy,290,2014-02-01 21:15:00
2:35 PM,37.4,12.2,36,29.79,10.0,NW,17.3,24.2,N/A,,Clear,310,2014-02-01 21:35:00
2:55 PM,37.4,10.4,33,29.80,10.0,WNW,16.1,24.2,N/A,,Clear,290,2014-02-01 21:55:00
3:15 PM,37.4,10.4,33,29.80,10.0,West,16.1,24.2,N/A,,Clear,280,2014-02-01 22:15:00
3:35 PM,37.4,10.4,33,29.81,10.0,WNW,15.0,-,N/A,,Clear,290,2014-02-01 22:35:00
3:55 PM,37.4,8.6,30,29.82,10.0,WNW,18.4,23.0,N/A,,Clear,290,2014-02-01 22:55:00
4:15 PM,37.4,8.6,30,29.83,10.0,WNW,17.3,20.7,N/A,,Clear,290,2014-02-01 23:15:00
4:35 PM,35.6,8.6,33,29.84,10.0,West,15.0,20.7,N/A,,Clear,280,2014-02-01 23:35:00
4:55 PM,35.6,6.8,30,29.85,10.0,West,12.7,-,N/A,,Clear,270,2014-02-01 23:55:00
5:15 PM,33.8,8.6,35,29.85,10.0,WNW,12.7,16.1,N/A,,Clear,300,2014-02-02 00:15:00
5:35 PM,30.2,8.6,40,29.86,10.0,NW,10.4,-,N/A,,Clear,310,2014-02-02 00:35:00
5:55 PM,28.4,10.4,47,29.87,10.0,NW,6.9,-,N/A,,Clear,310,2014-02-02 00:55:00
6:15 PM,26.6,10.4,51,29.89,10.0,NNW,4.6,-,N/A,,Clear,330,2014-02-02 01:15:00
6:35 PM,26.6,10.4,51,29.90,10.0,NNW,4.6,-,N/A,,Clear,340,2014-02-02 01:35:00
6:55 PM,26.6,10.4,51,29.91,10.0,NNW,4.6,-,N/A,,Scattered Clouds,330,2014-02-02 01:55:00
7:15 PM,26.6,12.2,55,29.91,10.0,Calm,Calm,-,N/A,,Mostly Cloudy,0,2014-02-02 02:15:00
7:35 PM,26.6,10.4,51,29.92,10.0,Calm,Calm,-,N/A,,Mostly Cloudy,0,2014-02-02 02:35:00
7:55 PM,23.0,12.2,63,29.92,10.0,North,5.8,-,N/A,,Mostly Cloudy,360,2014-02-02 02:55:00
8:15 PM,24.8,12.2,59,29.92,10.0,NW,6.9,-,N/A,,Partly Cloudy,320,2014-02-02 03:15:00
8:35 PM,24.8,12.2,59,29.93,10.0,WSW,4.6,-,N/A,,Partly Cloudy,250,2014-02-02 03:35:00
8:55 PM,23.0,12.2,63,29.94,10.0,Calm,Calm,-,N/A,,Partly Cloudy,0,2014-02-02 03:55:00
9:15 PM,21.2,12.2,68,29.95,10.0,Calm,Calm,-,N/A,,Scattered Clouds,0,2014-02-02 04:15:00
9:35 PM,21.2,12.2,68,29.95,10.0,Calm,Calm,-,N/A,,Scattered Clouds,0,2014-02-02 04:35:00
9:55 PM,19.4,12.2,74,29.96,10.0,South,4.6,-,N/A,,Partly Cloudy,170,2014-02-02 04:55:00
10:15 PM,19.4,12.2,74,29.96,10.0,ESE,4.6,-,N/A,,Clear,110,2014-02-02 05:15:00
10:35 PM,19.4,12.2,74,29.97,10.0,SSE,5.8,-,N/A,,Clear,150,2014-02-02 05:35:00
10:55 PM,19.4,12.2,74,29.96,10.0,South,6.9,-,N/A,,Clear,170,2014-02-02 05:55:00
11:15 PM,19.4,10.4,68,29.96,10.0,SSE,5.8,-,N/A,,Clear,150,2014-02-02 06:15:00
11:35 PM,17.6,12.2,79,29.97,10.0,Calm,Calm,-,N/A,,Clear,0,2014-02-02 06:35:00
11:55 PM,15.8,8.6,73,29.97,10.0,NNW,3.5,-,N/A,,Partly Cloudy,340,2014-02-02 06:55:00